| time (UTC) | temp F | wind direction | speed MPH | gust MPH | rain 1hr in | rain 24hr in | rain mn in | humidity % | barometer mb |
| 20260510163847 | 65 | 311 | 1.0 | 1.0 | 0.00 | 0.00 | 0.00 | 76 | 1015.1 |
| 20260510163343 | 66 | 253 | 2.0 | 2.0 | 0.00 | 0.00 | 0.00 | 76 | 1014.9 |
| 20260510162838 | 66 | 241 | 0.0 | 0.0 | 0.00 | 0.00 | 0.00 | 76 | 1015.3 |
| 20260510162336 | 65 | 255 | 0.0 | 0.0 | 0.00 | 0.00 | 0.00 | 76 | 1015.3 |
| 20260510161831 | 64 | 250 | 2.0 | 2.0 | 0.00 | 0.00 | 0.00 | 78 | 1015.4 |
| 20260510161327 | 64 | 247 | 0.0 | 0.0 | 0.00 | 0.00 | 0.00 | 81 | 1015.5 |
| 20260510160824 | 65 | 252 | 0.0 | 0.0 | 0.00 | 0.00 | 0.00 | 78 | 1015.4 |
| 20260510160320 | 64 | 292 | 0.0 | 0.0 | 0.00 | 0.00 | 0.00 | 79 | 1015.5 |
| 20260510155814 | 63 | 269 | 1.0 | 2.0 | 0.00 | 0.00 | 0.00 | 80 | 1015.6 |
| 20260510155311 | 64 | 257 | 0.0 | 1.0 | 0.00 | 0.00 | 0.00 | 80 | 1015.7 |
| 20260510154802 | 63 | 260 | 2.0 | 2.0 | 0.00 | 0.00 | 0.00 | 79 | 1015.4 |
| 20260510154258 | 64 | 270 | 2.0 | 2.0 | 0.00 | 0.00 | 0.00 | 80 | 1015.2 |
| 20260510153752 | 64 | 237 | 0.0 | 1.0 | 0.00 | 0.00 | 0.00 | 78 | 1015.3 |
| 20260510153249 | 63 | 211 | 0.0 | 0.0 | 0.00 | 0.00 | 0.00 | 81 | 1015.4 |
| 20260510152745 | 63 | 199 | 1.0 | 2.0 | 0.00 | 0.00 | 0.00 | 81 | 1015.5 |
| 20260510152242 | 63 | 216 | 0.0 | 0.0 | 0.00 | 0.00 | 0.00 | 83 | 1015.4 |
| 20260510151738 | 63 | 226 | 0.0 | 0.0 | 0.00 | 0.00 | 0.00 | 84 | 1015.6 |
| 20260510151237 | 62 | 245 | 0.0 | 0.0 | 0.00 | 0.00 | 0.00 | 82 | 1015.5 |
| 20260510150727 | 62 | 273 | 0.0 | 0.0 | 0.00 | 0.00 | 0.00 | 85 | 1015.6 |
| 20260510150222 | 62 | 214 | 0.0 | 0.0 | 0.00 | 0.00 | 0.00 | 86 | 1015.6 |
| 20260510145719 | 61 | 252 | 1.0 | 1.0 | 0.00 | 0.00 | 0.00 | 86 | 1015.3 |
| 20260510145215 | 60 | 261 | 2.0 | 2.0 | 0.00 | 0.00 | 0.00 | 88 | 1015.7 |
| 20260510144711 | 60 | 315 | 2.0 | 3.0 | 0.00 | 0.00 | 0.00 | 85 | 1015.5 |
| 20260510144209 | 60 | 160 | 2.0 | 3.0 | 0.00 | 0.00 | 0.00 | 87 | 1015.8 |
| 20260510143703 | 59 | 251 | 0.0 | 1.0 | 0.00 | 0.00 | 0.00 | 89 | 1015.6 |
| 20260510143200 | 58 | 238 | 0.0 | 0.0 | 0.00 | 0.00 | 0.00 | 91 | 1015.5 |
| 20260510142656 | 58 | 265 | 3.0 | 3.0 | 0.00 | 0.00 | 0.00 | 89 | 1015.8 |
| 20260510142153 | 60 | 253 | 0.0 | 0.0 | 0.00 | 0.00 | 0.00 | 88 | 1015.4 |
| 20260510141650 | 59 | 159 | 0.0 | 0.0 | 0.00 | 0.00 | 0.00 | 90 | 1015.4 |
| 20260510141148 | 58 | 247 | 0.0 | 1.0 | 0.00 | 0.00 | 0.00 | 92 | 1015.2 |
| 20260510140644 | 57 | 245 | 0.0 | 0.0 | 0.00 | 0.00 | 0.00 | 93 | 1015.1 |
| 20260510140143 | 57 | 255 | 0.0 | 0.0 | 0.00 | 0.00 | 0.00 | 94 | 1015.5 |
| 20260510135639 | 57 | 266 | 0.0 | 0.0 | 0.00 | 0.00 | 0.00 | 95 | 1015.5 |
| 20260510135135 | 55 | 210 | 0.0 | 0.0 | 0.00 | 0.00 | 0.00 | 97 | 1015.6 |
| 20260510134632 | 55 | 258 | 1.0 | 1.0 | 0.00 | 0.00 | 0.00 | 97 | 1015.5 |
| 20260510134129 | 54 | 247 | 0.0 | 0.0 | 0.00 | 0.00 | 0.00 | 99 | 1015.6 |
| 20260510133626 | 53 | 218 | 0.0 | 0.0 | 0.00 | 0.00 | 0.00 | 99 | 1015.4 |
| 20260510133121 | 53 | 237 | 0.0 | 0.0 | 0.00 | 0.00 | 0.00 | 99 | 1015.5 |
| 20260510132618 | 53 | 237 | 0.0 | 0.0 | 0.00 | 0.00 | 0.00 | 99 | 1015.5 |
| 20260510132115 | 52 | 257 | 0.0 | 0.0 | 0.00 | 0.00 | 0.00 | 99 | 1015.5 |
| 20260510131613 | 51 | 261 | 0.0 | 0.0 | 0.00 | 0.00 | 0.00 | 99 | 1015.3 |
| 20260510131110 | 51 | 259 | 0.0 | 0.0 | 0.00 | 0.00 | 0.00 | 99 | 1015.3 |
| 20260510130606 | 51 | 278 | 0.0 | 0.0 | 0.00 | 0.00 | 0.00 | 99 | 1015.1 |
| 20260510130104 | 51 | 211 | 0.0 | 0.0 | 0.00 | 0.00 | 0.00 | 99 | 1015.3 |
| 20260510125600 | 51 | 183 | 0.0 | 0.0 | 0.00 | 0.00 | 0.00 | 99 | 1015.2 |
| 20260510125056 | 50 | 220 | 0.0 | 0.0 | 0.00 | 0.00 | 0.00 | 99 | 1015.3 |
| 20260510124553 | 51 | 207 | 0.0 | 0.0 | 0.00 | 0.00 | 0.00 | 99 | 1015.3 |
| 20260510124050 | 51 | 238 | 0.0 | 0.0 | 0.00 | 0.00 | 0.00 | 99 | 1015.2 |
| 20260510123545 | 51 | 254 | 0.0 | 0.0 | 0.00 | 0.00 | 0.00 | 99 | 1015.1 |
| 20260510123042 | 51 | 199 | 0.0 | 0.0 | 0.00 | 0.00 | 0.00 | 99 | 1015.2 |
| 20260510122537 | 51 | 195 | 0.0 | 0.0 | 0.00 | 0.00 | 0.00 | 99 | 1014.8 |
| 20260510122034 | 51 | 231 | 0.0 | 0.0 | 0.00 | 0.00 | 0.00 | 99 | 1014.9 |
| 20260510121531 | 51 | 231 | 0.0 | 0.0 | 0.00 | 0.00 | 0.00 | 99 | 1014.8 |
| 20260510121028 | 51 | 231 | 0.0 | 0.0 | 0.00 | 0.00 | 0.00 | 99 | 1014.9 |
| 20260510120526 | 51 | 244 | 0.0 | 0.0 | 0.00 | 0.00 | 0.00 | 99 | 1015.1 |
| 20260510120021 | 51 | 245 | 0.0 | 0.0 | 0.00 | 0.00 | 0.00 | 99 | 1014.8 |
| 20260510115518 | 50 | 231 | 0.0 | 0.0 | 0.00 | 0.00 | 0.00 | 99 | 1014.8 |
| 20260510115014 | 50 | 228 | 0.0 | 0.0 | 0.00 | 0.00 | 0.00 | 99 | 1014.8 |
| 20260510114511 | 50 | 170 | 0.0 | 0.0 | 0.00 | 0.00 | 0.00 | 99 | 1014.6 |
| 20260510114007 | 50 | 219 | 0.0 | 0.0 | 0.00 | 0.00 | 0.00 | 99 | 1014.9 |
| 20260510113502 | 50 | 213 | 0.0 | 0.0 | 0.00 | 0.00 | 0.00 | 99 | 1014.5 |
| 20260510113000 | 50 | 219 | 0.0 | 0.0 | 0.00 | 0.00 | 0.00 | 99 | 1014.4 |
| 20260510112456 | 50 | 220 | 0.0 | 0.0 | 0.00 | 0.00 | 0.00 | 99 | 1014.3 |
| 20260510111952 | 50 | 251 | 0.0 | 0.0 | 0.00 | 0.00 | 0.00 | 99 | 1014.3 |
| 20260510111448 | 50 | 229 | 0.0 | 0.0 | 0.00 | 0.00 | 0.00 | 99 | 1014.3 |
| 20260510110944 | 49 | 229 | 0.0 | 0.0 | 0.00 | 0.00 | 0.00 | 99 | 1014.4 |
| 20260510110436 | 49 | 229 | 0.0 | 0.0 | 0.00 | 0.00 | 0.00 | 99 | 1014.2 |
| 20260510105932 | 49 | 263 | 0.0 | 0.0 | 0.00 | 0.00 | 0.00 | 99 | 1014.2 |
| 20260510105427 | 49 | 248 | 0.0 | 0.0 | 0.00 | 0.00 | 0.00 | 99 | 1014.0 |
| 20260510104922 | 49 | 258 | 0.0 | 0.0 | 0.00 | 0.00 | 0.00 | 99 | 1013.9 |
| 20260510104419 | 49 | 224 | 0.0 | 0.0 | 0.00 | 0.00 | 0.00 | 99 | 1014.1 |
| 20260510103916 | 49 | 229 | 0.0 | 0.0 | 0.00 | 0.00 | 0.00 | 99 | 1014.1 |
| 20260510103413 | 49 | 202 | 0.0 | 0.0 | 0.00 | 0.00 | 0.00 | 99 | 1014.1 |
| 20260510102908 | 49 | 232 | 0.0 | 0.0 | 0.00 | 0.00 | 0.00 | 99 | 1014.1 |
| 20260510102404 | 49 | 232 | 0.0 | 0.0 | 0.00 | 0.00 | 0.00 | 99 | 1014.1 |
| 20260510101902 | 49 | 232 | 0.0 | 0.0 | 0.00 | 0.00 | 0.00 | 99 | 1013.9 |
| 20260510101359 | 49 | 232 | 0.0 | 0.0 | 0.00 | 0.00 | 0.00 | 99 | 1013.8 |
| 20260510100856 | 49 | 232 | 0.0 | 0.0 | 0.00 | 0.00 | 0.00 | 99 | 1014.0 |
| 20260510100353 | 49 | 232 | 0.0 | 0.0 | 0.00 | 0.00 | 0.00 | 99 | 1013.8 |
| 20260510095850 | 49 | 244 | 0.0 | 0.0 | 0.00 | 0.00 | 0.00 | 99 | 1013.9 |
| 20260510095344 | 49 | 224 | 0.0 | 0.0 | 0.00 | 0.00 | 0.00 | 99 | 1013.7 |
| 20260510094844 | 49 | 260 | 0.0 | 0.0 | 0.00 | 0.00 | 0.00 | 99 | 1013.9 |
| 20260510094339 | 49 | 271 | 0.0 | 0.0 | 0.00 | 0.00 | 0.00 | 99 | 1013.6 |
| 20260510093836 | 49 | 211 | 0.0 | 0.0 | 0.00 | 0.00 | 0.00 | 99 | 1013.7 |
| 20260510093332 | 49 | 307 | 0.0 | 0.0 | 0.00 | 0.00 | 0.00 | 99 | 1013.6 |
| 20260510092828 | 49 | 220 | 0.0 | 0.0 | 0.00 | 0.00 | 0.00 | 99 | 1013.8 |
| 20260510092324 | 49 | 221 | 0.0 | 0.0 | 0.00 | 0.00 | 0.00 | 99 | 1013.7 |
| 20260510091820 | 49 | 10 | 0.0 | 0.0 | 0.00 | 0.00 | 0.00 | 99 | 1013.6 |
| 20260510091318 | 48 | 217 | 0.0 | 0.0 | 0.00 | 0.00 | 0.00 | 99 | 1013.5 |
| 20260510090814 | 48 | 201 | 0.0 | 0.0 | 0.00 | 0.00 | 0.00 | 99 | 1013.8 |
| 20260510090311 | 48 | 202 | 0.0 | 0.0 | 0.00 | 0.00 | 0.00 | 99 | 1013.8 |
| 20260510085807 | 49 | 221 | 0.0 | 0.0 | 0.00 | 0.00 | 0.00 | 99 | 1013.9 |
| 20260510085307 | 49 | 221 | 0.0 | 0.0 | 0.00 | 0.00 | 0.00 | 99 | 1013.9 |
| 20260510084803 | 49 | 207 | 0.0 | 0.0 | 0.00 | 0.00 | 0.00 | 99 | 1013.8 |
| 20260510084259 | 49 | 201 | 0.0 | 0.0 | 0.00 | 0.00 | 0.00 | 99 | 1014.1 |
| 20260510083756 | 49 | 209 | 0.0 | 0.0 | 0.00 | 0.00 | 0.00 | 99 | 1013.8 |
| 20260510083253 | 49 | 188 | 0.0 | 0.0 | 0.00 | 0.00 | 0.00 | 99 | 1013.9 |
| 20260510082749 | 49 | 186 | 0.0 | 0.0 | 0.00 | 0.00 | 0.00 | 99 | 1013.8 |
| 20260510082245 | 49 | 196 | 0.0 | 0.0 | 0.00 | 0.00 | 0.00 | 99 | 1014.1 |
| 20260510081744 | 49 | 215 | 0.0 | 0.0 | 0.00 | 0.00 | 0.00 | 99 | 1014.0 |
| 20260510081241 | 49 | 205 | 0.0 | 0.0 | 0.00 | 0.00 | 0.00 | 99 | 1013.9 |
| 20260510080736 | 49 | 231 | 0.0 | 0.0 | 0.00 | 0.00 | 0.00 | 99 | 1014.2 |
| 20260510080232 | 49 | 249 | 0.0 | 0.0 | 0.00 | 0.00 | 0.00 | 99 | 1014.3 |
| 20260510075729 | 49 | 247 | 0.0 | 0.0 | 0.00 | 0.00 | 0.00 | 99 | 1014.3 |
| 20260510075227 | 49 | 247 | 0.0 | 0.0 | 0.00 | 0.00 | 0.00 | 99 | 1014.3 |
| 20260510074724 | 49 | 232 | 0.0 | 0.0 | 0.00 | 0.00 | 0.00 | 99 | 1014.1 |
| 20260510074220 | 49 | 247 | 0.0 | 0.0 | 0.00 | 0.00 | 0.00 | 99 | 1014.1 |
| 20260510073716 | 49 | 247 | 0.0 | 0.0 | 0.00 | 0.00 | 0.00 | 99 | 1014.1 |
| 20260510073212 | 49 | 251 | 0.0 | 0.0 | 0.00 | 0.00 | 0.00 | 99 | 1014.0 |
| 20260510072708 | 49 | 252 | 0.0 | 1.0 | 0.00 | 0.00 | 0.00 | 99 | 1014.2 |
| 20260510072205 | 49 | 263 | 1.0 | 2.0 | 0.00 | 0.00 | 0.00 | 99 | 1013.9 |
| 20260510071701 | 49 | 242 | 0.0 | 0.0 | 0.00 | 0.00 | 0.00 | 99 | 1013.8 |
| 20260510071158 | 49 | 246 | 0.0 | 0.0 | 0.00 | 0.00 | 0.00 | 99 | 1013.6 |
| 20260510070656 | 49 | 221 | 0.0 | 0.0 | 0.00 | 0.00 | 0.00 | 99 | 1013.5 |
| 20260510070153 | 49 | 217 | 0.0 | 0.0 | 0.00 | 0.00 | 0.00 | 99 | 1013.6 |
| 20260510065649 | 49 | 225 | 0.0 | 0.0 | 0.00 | 0.00 | 0.00 | 99 | 1013.5 |
| 20260510065145 | 49 | 217 | 0.0 | 0.0 | 0.00 | 0.00 | 0.00 | 99 | 1013.4 |
| 20260510064642 | 49 | 220 | 0.0 | 0.0 | 0.00 | 0.00 | 0.00 | 99 | 1013.7 |
| 20260510064138 | 49 | 238 | 0.0 | 0.0 | 0.00 | 0.00 | 0.00 | 99 | 1013.8 |
| 20260510063636 | 49 | 238 | 0.0 | 0.0 | 0.00 | 0.00 | 0.00 | 99 | 1013.8 |
| 20260510063132 | 49 | 238 | 0.0 | 0.0 | 0.00 | 0.00 | 0.00 | 99 | 1013.6 |
| 20260510062628 | 49 | 238 | 0.0 | 0.0 | 0.00 | 0.00 | 0.00 | 99 | 1013.9 |
| 20260510062124 | 49 | 238 | 0.0 | 0.0 | 0.00 | 0.00 | 0.00 | 99 | 1013.8 |
| 20260510061620 | 49 | 238 | 0.0 | 0.0 | 0.00 | 0.00 | 0.00 | 99 | 1014.0 |
| 20260510061118 | 49 | 233 | 0.0 | 0.0 | 0.00 | 0.00 | 0.00 | 99 | 1013.9 |
| 20260510060613 | 49 | 222 | 0.0 | 0.0 | 0.00 | 0.00 | 0.00 | 99 | 1013.8 |
| 20260510060110 | 49 | 222 | 0.0 | 0.0 | 0.00 | 0.00 | 0.00 | 99 | 1013.7 |
| 20260510055606 | 49 | 222 | 0.0 | 0.0 | 0.00 | 0.00 | 0.00 | 99 | 1013.7 |
| 20260510055104 | 49 | 226 | 0.0 | 0.0 | 0.00 | 0.00 | 0.00 | 99 | 1013.4 |
| 20260510054600 | 50 | 196 | 0.0 | 0.0 | 0.00 | 0.00 | 0.00 | 99 | 1013.6 |
| 20260510054055 | 49 | 211 | 0.0 | 0.0 | 0.00 | 0.00 | 0.00 | 99 | 1013.5 |
| 20260510053555 | 49 | 241 | 0.0 | 0.0 | 0.00 | 0.00 | 0.00 | 99 | 1013.5 |
| 20260510053052 | 49 | 279 | 0.0 | 0.0 | 0.00 | 0.00 | 0.00 | 99 | 1013.5 |
| 20260510052542 | 49 | 9 | 0.0 | 0.0 | 0.00 | 0.00 | 0.00 | 99 | 1013.4 |
| 20260510052038 | 49 | 225 | 0.0 | 0.0 | 0.00 | 0.00 | 0.00 | 99 | 1013.3 |
| 20260510051534 | 50 | 266 | 0.0 | 0.0 | 0.00 | 0.00 | 0.00 | 99 | 1013.4 |
| 20260510051031 | 49 | 228 | 0.0 | 0.0 | 0.00 | 0.00 | 0.00 | 99 | 1013.6 |
| 20260510050528 | 49 | 226 | 0.0 | 0.0 | 0.00 | 0.00 | 0.00 | 99 | 1013.4 |
| 20260510050025 | 49 | 236 | 0.0 | 0.0 | 0.00 | 0.00 | 0.00 | 99 | 1013.7 |
| 20260510045522 | 49 | 189 | 0.0 | 0.0 | 0.00 | 0.00 | 0.00 | 99 | 1013.7 |
| 20260510045018 | 49 | 246 | 0.0 | 0.0 | 0.00 | 0.00 | 0.00 | 99 | 1013.5 |
| 20260510044515 | 49 | 208 | 0.0 | 0.0 | 0.00 | 0.00 | 0.00 | 99 | 1013.5 |
| 20260510044014 | 49 | 242 | 0.0 | 0.0 | 0.00 | 0.00 | 0.00 | 99 | 1013.6 |
| 20260510043513 | 49 | 201 | 0.0 | 0.0 | 0.00 | 0.00 | 0.00 | 99 | 1013.6 |
| 20260510043009 | 50 | 215 | 0.0 | 0.0 | 0.00 | 0.00 | 0.00 | 99 | 1013.9 |
| 20260510042503 | 50 | 213 | 0.0 | 0.0 | 0.00 | 0.00 | 0.00 | 99 | 1013.9 |
| 20260510041959 | 50 | 211 | 0.0 | 0.0 | 0.00 | 0.00 | 0.00 | 99 | 1013.7 |
| 20260510041456 | 50 | 241 | 0.0 | 0.0 | 0.00 | 0.00 | 0.00 | 99 | 1013.6 |
| 20260510040954 | 50 | 216 | 0.0 | 0.0 | 0.00 | 0.00 | 0.00 | 99 | 1013.5 |
| 20260510040450 | 50 | 205 | 0.0 | 0.0 | 0.00 | 0.00 | 0.00 | 99 | 1013.6 |
| 20260510035946 | 50 | 210 | 0.0 | 0.0 | 0.00 | 0.34 | 0.34 | 99 | 1013.6 |
| 20260510035443 | 50 | 92 | 0.0 | 0.0 | 0.00 | 0.34 | 0.34 | 99 | 1013.4 |
| 20260510034942 | 50 | 215 | 0.0 | 0.0 | 0.00 | 0.34 | 0.34 | 99 | 1013.4 |
| 20260510034441 | 50 | 224 | 0.0 | 0.0 | 0.00 | 0.34 | 0.34 | 99 | 1013.1 |
| 20260510033937 | 50 | 231 | 0.0 | 0.0 | 0.00 | 0.34 | 0.34 | 99 | 1013.1 |
| 20260510033433 | 50 | 211 | 0.0 | 0.0 | 0.00 | 0.34 | 0.34 | 99 | 1013.2 |
| 20260510032930 | 50 | 223 | 0.0 | 0.0 | 0.00 | 0.34 | 0.34 | 99 | 1013.4 |
| 20260510032427 | 50 | 198 | 0.0 | 0.0 | 0.00 | 0.34 | 0.34 | 99 | 1013.4 |
| 20260510031922 | 50 | 224 | 0.0 | 0.0 | 0.00 | 0.34 | 0.34 | 99 | 1013.6 |
| 20260510031418 | 50 | 211 | 0.0 | 0.0 | 0.00 | 0.34 | 0.34 | 99 | 1013.5 |
| 20260510030913 | 50 | 226 | 0.0 | 0.0 | 0.00 | 0.34 | 0.34 | 99 | 1013.3 |
| 20260510030409 | 50 | 216 | 0.0 | 0.0 | 0.00 | 0.34 | 0.34 | 99 | 1013.5 |
| 20260510025907 | 50 | 161 | 0.0 | 0.0 | 0.00 | 0.34 | 0.34 | 99 | 1013.6 |
| 20260510025404 | 50 | 259 | 0.0 | 0.0 | 0.00 | 0.34 | 0.34 | 99 | 1013.6 |
| 20260510024901 | 50 | 209 | 0.0 | 0.0 | 0.00 | 0.34 | 0.34 | 99 | 1013.6 |
| 20260510024357 | 50 | 221 | 0.0 | 0.0 | 0.00 | 0.34 | 0.34 | 99 | 1013.6 |
| 20260510023853 | 50 | 207 | 0.0 | 0.0 | 0.00 | 0.34 | 0.34 | 99 | 1013.7 |
| 20260510023351 | 50 | 210 | 0.0 | 0.0 | 0.00 | 0.34 | 0.34 | 99 | 1013.7 |
| 20260510022848 | 50 | 226 | 0.0 | 0.0 | 0.00 | 0.34 | 0.34 | 99 | 1013.7 |
| 20260510022347 | 50 | 244 | 0.0 | 0.0 | 0.00 | 0.34 | 0.34 | 99 | 1013.7 |
| 20260510021845 | 50 | 248 | 0.0 | 0.0 | 0.00 | 0.34 | 0.34 | 99 | 1013.7 |
| 20260510021344 | 50 | 248 | 0.0 | 0.0 | 0.00 | 0.34 | 0.34 | 99 | 1013.5 |
| 20260510020840 | 50 | 248 | 0.0 | 0.0 | 0.00 | 0.34 | 0.34 | 99 | 1013.6 |
| 20260510020335 | 50 | 225 | 0.0 | 0.0 | 0.00 | 0.34 | 0.34 | 99 | 1013.5 |
| 20260510015831 | 50 | 225 | 0.0 | 0.0 | 0.00 | 0.34 | 0.34 | 99 | 1013.4 |
| 20260510015327 | 50 | 225 | 0.0 | 0.0 | 0.00 | 0.34 | 0.34 | 99 | 1013.4 |
| 20260510014822 | 50 | 246 | 0.0 | 0.0 | 0.00 | 0.34 | 0.34 | 99 | 1013.4 |
| 20260510014320 | 50 | 237 | 0.0 | 0.0 | 0.00 | 0.34 | 0.34 | 99 | 1013.6 |
| 20260510013816 | 50 | 199 | 0.0 | 0.0 | 0.00 | 0.34 | 0.34 | 99 | 1013.4 |
| 20260510013312 | 50 | 219 | 0.0 | 0.0 | 0.00 | 0.34 | 0.34 | 99 | 1013.2 |
| 20260510012807 | 50 | 215 | 0.0 | 0.0 | 0.00 | 0.34 | 0.34 | 99 | 1013.2 |
| 20260510012307 | 50 | 215 | 0.0 | 0.0 | 0.00 | 0.34 | 0.34 | 99 | 1013.3 |
| 20260510011801 | 50 | 243 | 0.0 | 0.0 | 0.00 | 0.34 | 0.34 | 99 | 1013.3 |
| 20260510011257 | 50 | 246 | 0.0 | 0.0 | 0.00 | 0.34 | 0.34 | 99 | 1013.0 |
| 20260510010754 | 49 | 211 | 0.0 | 0.0 | 0.00 | 0.34 | 0.34 | 99 | 1013.1 |
| 20260510010250 | 49 | 210 | 0.0 | 0.0 | 0.00 | 0.34 | 0.34 | 99 | 1013.0 |
| 20260510005748 | 49 | 213 | 0.0 | 0.0 | 0.00 | 0.34 | 0.34 | 99 | 1012.9 |
| 20260510005244 | 50 | 213 | 0.0 | 0.0 | 0.00 | 0.34 | 0.34 | 99 | 1013.0 |
| 20260510004742 | 50 | 213 | 0.0 | 0.0 | 0.00 | 0.34 | 0.34 | 99 | 1013.0 |
| 20260510004239 | 50 | 238 | 0.0 | 0.0 | 0.00 | 0.34 | 0.34 | 99 | 1013.0 |
| 20260510003736 | 50 | 220 | 0.0 | 0.0 | 0.00 | 0.34 | 0.34 | 99 | 1012.9 |
| 20260510003233 | 50 | 209 | 0.0 | 0.0 | 0.00 | 0.34 | 0.34 | 99 | 1012.8 |
| 20260510002731 | 50 | 203 | 0.0 | 0.0 | 0.00 | 0.34 | 0.34 | 99 | 1013.0 |
| 20260510002229 | 50 | 215 | 0.0 | 0.0 | 0.00 | 0.34 | 0.34 | 99 | 1012.6 |
| 20260510001725 | 50 | 241 | 0.0 | 0.0 | 0.00 | 0.34 | 0.34 | 99 | 1012.6 |
| 20260510001224 | 50 | 238 | 0.0 | 0.0 | 0.00 | 0.34 | 0.34 | 99 | 1012.6 |
| 20260510000720 | 50 | 210 | 0.0 | 0.0 | 0.00 | 0.34 | 0.34 | 99 | 1012.5 |
| 20260510000219 | 50 | 266 | 0.0 | 0.0 | 0.00 | 0.34 | 0.34 | 99 | 1012.4 |
| 20260509235714 | 50 | 215 | 0.0 | 0.0 | 0.00 | 0.34 | 0.34 | 99 | 1012.6 |
| 20260509235210 | 50 | 213 | 0.0 | 0.0 | 0.00 | 0.34 | 0.34 | 99 | 1012.6 |
| 20260509234706 | 51 | 209 | 0.0 | 0.0 | 0.00 | 0.34 | 0.34 | 99 | 1012.5 |
| 20260509234204 | 51 | 301 | 0.0 | 0.0 | 0.00 | 0.34 | 0.34 | 99 | 1012.4 |
| 20260509233702 | 51 | 229 | 0.0 | 0.0 | 0.00 | 0.34 | 0.34 | 99 | 1012.8 |
| 20260509233159 | 51 | 224 | 0.0 | 0.0 | 0.00 | 0.34 | 0.34 | 99 | 1012.6 |
| 20260509232655 | 51 | 214 | 0.0 | 0.0 | 0.00 | 0.34 | 0.34 | 99 | 1012.5 |
| 20260509232152 | 51 | 203 | 0.0 | 0.0 | 0.00 | 0.34 | 0.34 | 99 | 1012.6 |
| 20260509231649 | 51 | 225 | 0.0 | 0.0 | 0.00 | 0.34 | 0.34 | 99 | 1012.7 |
| 20260509231146 | 51 | 166 | 1.0 | 1.0 | 0.00 | 0.34 | 0.34 | 99 | 1012.9 |
| 20260509230643 | 51 | 217 | 0.0 | 1.0 | 0.00 | 0.34 | 0.34 | 99 | 1012.6 |
| 20260509230140 | 51 | 219 | 0.0 | 0.0 | 0.00 | 0.34 | 0.34 | 99 | 1012.7 |
| 20260509225636 | 51 | 159 | 0.0 | 0.0 | 0.00 | 0.34 | 0.34 | 99 | 1012.6 |
| 20260509225131 | 51 | 40 | 0.0 | 1.0 | 0.00 | 0.34 | 0.34 | 99 | 1012.9 |
| 20260509224627 | 51 | 184 | 0.0 | 0.0 | 0.00 | 0.34 | 0.34 | 99 | 1012.7 |
| 20260509224124 | 51 | 209 | 0.0 | 0.0 | 0.00 | 0.34 | 0.34 | 99 | 1012.7 |
| 20260509223621 | 51 | 220 | 0.0 | 0.0 | 0.07 | 0.34 | 0.34 | 99 | 1012.7 |
| 20260509223119 | 51 | 216 | 0.0 | 0.0 | 0.07 | 0.34 | 0.34 | 99 | 1012.6 |
| 20260509222614 | 51 | 223 | 0.0 | 0.0 | 0.05 | 0.33 | 0.33 | 99 | 1012.8 |
| 20260509222110 | 51 | 203 | 0.0 | 0.0 | 0.05 | 0.33 | 0.33 | 99 | 1012.9 |
| 20260509221606 | 51 | 241 | 0.0 | 0.0 | 0.05 | 0.33 | 0.33 | 99 | 1013.0 |
| 20260509221102 | 51 | 195 | 0.0 | 0.0 | 0.00 | 0.32 | 0.32 | 99 | 1012.7 |
| 20260509220558 | 51 | 71 | 0.0 | 0.0 | 0.00 | 0.32 | 0.32 | 99 | 1013.0 |
| 20260509220055 | 50 | 208 | 0.0 | 0.0 | 0.00 | 0.32 | 0.32 | 99 | 1013.2 |
| 20260509215550 | 51 | 208 | 0.0 | 0.0 | 0.07 | 0.32 | 0.32 | 99 | 1013.2 |
| 20260509215048 | 51 | 206 | 0.0 | 0.0 | 0.07 | 0.32 | 0.32 | 99 | 1013.4 |
| 20260509214545 | 51 | 227 | 0.0 | 0.0 | 0.05 | 0.31 | 0.31 | 99 | 1013.4 |
| 20260509214042 | 51 | 218 | 0.0 | 0.0 | 0.05 | 0.31 | 0.31 | 99 | 1013.3 |
| 20260509213538 | 51 | 166 | 0.0 | 0.0 | 0.00 | 0.30 | 0.30 | 99 | 1013.5 |
| 20260509213035 | 51 | 121 | 0.0 | 0.0 | 0.07 | 0.30 | 0.30 | 99 | 1013.3 |
| 20260509212532 | 51 | 213 | 0.0 | 0.0 | 0.14 | 0.30 | 0.30 | 99 | 1013.5 |
| 20260509212029 | 51 | 175 | 0.0 | 0.0 | 0.19 | 0.29 | 0.29 | 99 | 1013.1 |
| 20260509211524 | 51 | 222 | 0.0 | 0.0 | 0.17 | 0.28 | 0.28 | 99 | 1013.2 |
| 20260509211021 | 51 | 98 | 2.0 | 2.0 | 0.17 | 0.26 | 0.26 | 99 | 1013.3 |
| 20260509210518 | 51 | 234 | 0.0 | 0.0 | 0.31 | 0.25 | 0.25 | 99 | 1013.5 |
| 20260509210014 | 51 | 264 | 0.0 | 0.0 | 0.24 | 0.23 | 0.23 | 99 | 1013.5 |
| 20260509205509 | 51 | 240 | 0.0 | 0.0 | 0.12 | 0.20 | 0.20 | 99 | 1013.8 |
| 20260509205005 | 51 | 245 | 0.0 | 0.0 | 0.14 | 0.19 | 0.19 | 99 | 1013.4 |
| 20260509204501 | 51 | 245 | 0.0 | 0.0 | 0.12 | 0.18 | 0.18 | 99 | 1013.3 |
| 20260509203957 | 51 | 242 | 0.0 | 0.0 | 0.05 | 0.17 | 0.17 | 99 | 1013.4 |
| 20260509203453 | 51 | 253 | 4.0 | 4.0 | 0.07 | 0.16 | 0.16 | 99 | 1013.4 |
| 20260509202951 | 51 | 226 | 1.0 | 1.0 | 0.07 | 0.16 | 0.16 | 99 | 1013.3 |
| 20260509202447 | 52 | 232 | 2.0 | 2.0 | 0.00 | 0.15 | 0.15 | 99 | 1013.1 |
| 20260509201942 | 52 | 243 | 0.0 | 0.0 | 0.05 | 0.15 | 0.15 | 99 | 1013.4 |
| 20260509201437 | 52 | 246 | 0.0 | 0.0 | 0.05 | 0.15 | 0.15 | 99 | 1013.4 |
| 20260509200935 | 52 | 250 | 0.0 | 0.0 | 0.00 | 0.14 | 0.14 | 99 | 1013.5 |
| 20260509200434 | 52 | 251 | 0.0 | 0.0 | 0.00 | 0.14 | 0.14 | 99 | 1013.5 |
| 20260509195931 | 52 | 246 | 0.0 | 0.0 | 0.00 | 0.14 | 0.14 | 99 | 1013.6 |
| 20260509195427 | 53 | 245 | 0.0 | 0.0 | 0.07 | 0.14 | 0.14 | 99 | 1013.5 |
| 20260509194927 | 52 | 250 | 0.0 | 0.0 | 0.07 | 0.14 | 0.14 | 99 | 1013.6 |
| 20260509194422 | 52 | 253 | 0.0 | 0.0 | 0.00 | 0.13 | 0.13 | 99 | 1013.7 |
| 20260509193920 | 52 | 255 | 0.0 | 0.0 | 0.05 | 0.13 | 0.13 | 99 | 1013.5 |
| 20260509193419 | 52 | 259 | 2.0 | 2.0 | 0.05 | 0.13 | 0.13 | 99 | 1013.5 |
| 20260509192916 | 52 | 261 | 2.0 | 2.0 | 0.07 | 0.12 | 0.12 | 98 | 1013.8 |
| 20260509192412 | 52 | 244 | 0.0 | 1.0 | 0.07 | 0.12 | 0.12 | 98 | 1013.9 |
| 20260509191907 | 52 | 251 | 1.0 | 3.0 | 0.05 | 0.11 | 0.11 | 98 | 1013.9 |
| 20260509191403 | 53 | 266 | 4.0 | 4.0 | 0.12 | 0.11 | 0.11 | 99 | 1014.2 |
| 20260509190859 | 53 | 249 | 0.0 | 0.0 | 0.12 | 0.10 | 0.10 | 99 | 1014.1 |
| 20260509190356 | 53 | 245 | 1.0 | 1.0 | 0.12 | 0.09 | 0.09 | 98 | 1014.3 |
| 20260509185854 | 53 | 258 | 2.0 | 3.0 | 0.12 | 0.08 | 0.08 | 98 | 1014.0 |
| 20260509185350 | 54 | 282 | 0.0 | 0.0 | 0.05 | 0.07 | 0.07 | 97 | 1013.9 |
| 20260509184848 | 55 | 244 | 0.0 | 0.0 | 0.07 | 0.06 | 0.06 | 96 | 1013.7 |
| 20260509184344 | 55 | 246 | 0.0 | 0.0 | 0.14 | 0.06 | 0.06 | 94 | 1013.8 |
| 20260509183841 | 55 | 252 | 0.0 | 0.0 | 0.07 | 0.05 | 0.05 | 92 | 1013.6 |
| 20260509183336 | 56 | 226 | 0.0 | 0.0 | 0.00 | 0.04 | 0.04 | 90 | 1013.8 |
| 20260509182832 | 56 | 245 | 0.0 | 0.0 | 0.00 | 0.04 | 0.04 | 88 | 1013.5 |
| 20260509182329 | 56 | 244 | 0.0 | 0.0 | 0.00 | 0.04 | 0.04 | 89 | 1013.7 |
| 20260509181826 | 56 | 242 | 0.0 | 0.0 | 0.00 | 0.04 | 0.04 | 88 | 1013.3 |
| 20260509181318 | 56 | 228 | 0.0 | 0.0 | 0.00 | 0.04 | 0.04 | 88 | 1013.4 |
| 20260509180815 | 56 | 263 | 0.0 | 0.0 | 0.00 | 0.04 | 0.04 | 87 | 1013.4 |
| 20260509180311 | 57 | 263 | 0.0 | 0.0 | 0.00 | 0.04 | 0.04 | 88 | 1013.4 |
| 20260509175808 | 56 | 243 | 0.0 | 0.0 | 0.00 | 0.04 | 0.04 | 89 | 1013.6 |
| 20260509175259 | 56 | 217 | 0.0 | 0.0 | 0.00 | 0.04 | 0.04 | 91 | 1013.4 |
| 20260509174755 | 55 | 217 | 0.0 | 0.0 | 0.00 | 0.04 | 0.04 | 91 | 1013.3 |
| 20260509174250 | 55 | 235 | 0.0 | 0.0 | 0.00 | 0.04 | 0.04 | 91 | 1013.4 |
| 20260509173747 | 55 | 244 | 0.0 | 0.0 | 0.00 | 0.04 | 0.04 | 92 | 1013.3 |
| 20260509173242 | 55 | 232 | 0.0 | 0.0 | 0.00 | 0.04 | 0.04 | 91 | 1013.4 |
| 20260509172738 | 55 | 200 | 0.0 | 0.0 | 0.00 | 0.04 | 0.04 | 92 | 1013.8 |
| 20260509172235 | 55 | 200 | 0.0 | 0.0 | 0.00 | 0.04 | 0.04 | 92 | 1013.4 |
| 20260509171731 | 55 | 241 | 0.0 | 0.0 | 0.00 | 0.04 | 0.04 | 91 | 1013.2 |
| 20260509171227 | 55 | 233 | 0.0 | 0.0 | 0.00 | 0.04 | 0.04 | 91 | 1013.3 |
| 20260509170724 | 55 | 218 | 0.0 | 0.0 | 0.00 | 0.04 | 0.04 | 91 | 1013.6 |
| 20260509170220 | 55 | 210 | 0.0 | 0.0 | 0.00 | 0.04 | 0.04 | 91 | 1013.7 |
| 20260509165719 | 56 | 337 | 1.0 | 1.0 | 0.00 | 0.04 | 0.04 | 91 | 1014.0 |
| 20260509165214 | 56 | 190 | 0.0 | 0.0 | 0.00 | 0.04 | 0.04 | 92 | 1013.9 |
| 20260509164710 | 56 | 12 | 1.0 | 2.0 | 0.00 | 0.04 | 0.04 | 91 | 1014.0 |